Wind_Speed
8 9 8 8 7 7 6 6 9 11 14 16 17 17 16 16 15 14 13 12 13 12 11 12 14 13 13 14 14 16 16 15 15 14 15 15 16 16 17 18 19 20 21
8 9 9 9 9 7 7 6 7 8 11 12 14 14 14 14 13 12 11 11 11 11 12 12 12 12 13 15 16 17 17 18 17 16 15 16 16 17 18 20 21 22 23
8 8 10 8 8 7 6 5 6 6 8 10 10 11 11 11 11 10 10 10 11 11 11 11 11 12 13 15 17 17 17 17 17 17 18 19 20 21 22 23 25 26 28
9 8 9 7 6 6 4 3 3 5 6 7 8 9 9 9 9 9 8 9 11 10 9 11 11 12 14 16 17 17 16 16 18 19 22 22 23 23 23 25 27 28 28
10 9 10 8 6 6 5 4 3 4 6 7 7 7 7 8 8 8 7 9 9 9 10 10 12 13 15 15 15 16 16 17 20 23 24 21 22 24 26 30 29 26 26
12 11 10 10 7 7 7 5 3 3 6 7 7 6 6 6 7 6 8 8 9 9 10 11 12 14 14 15 15 16 18 20 24 24 19 22 24 27 30 29 27 27 26
17 13 11 10 7 8 9 6 4 4 6 7 6 6 6 7 7 8 9 9 9 9 10 11 12 13 13 14 15 17 19 21 24 17 20 22 24 27 30 28 29 29 26
20 17 13 10 7 8 9 8 6 5 6 6 7 7 8 9 8 8 7 7 7 8 11 11 12 13 14 15 17 17 20 25 20 19 21 24 25 26 25 27 27 26 24
21 18 16 12 8 8 9 9 7 7 7 8 8 9 9 9 7 4 4 5 6 8 9 10 12 13 15 18 19 20 24 24 19 20 23 24 23 23 23 23 24 23 22
16 21 21 16 12 9 10 9 8 7 8 9 11 11 10 8 4 2 5 9 12 9 8 9 11 14 17 18 19 22 25 19 19 21 22 23 20 21 21 21 20 21 22
19 18 23 20 15 13 11 11 9 9 10 10 12 11 10 6 2 3 6 12 12 9 8 8 11 15 18 17 20 24 21 18 18 21 21 20 21 20 20 18 18 18 19
25 22 23 25 20 18 15 12 11 10 11 12 13 11 8 4 2 4 9 14 12 8 7 9 13 16 15 16 21 22 18 16 17 20 20 20 20 19 19 18 18 17 17
38 33 25 24 22 20 17 15 14 13 13 15 14 12 8 5 4 6 12 15 13 9 8 11 14 13 14 17 21 19 16 16 17 18 18 19 19 18 18 17 16 17 19
30 30 31 31 26 22 19 17 16 15 15 17 16 13 10 8 7 8 12 13 13 8 9 11 12 15 14 17 18 17 14 14 15 17 17 17 17 16 18 18 16 17 19
39 34 31 33 32 28 23 20 19 17 17 18 17 15 12 10 9 9 11 12 13 11 11 13 14 13 14 17 15 15 12 12 13 15 16 16 15 16 16 16 15 16 16
35 40 42 39 34 30 26 24 22 21 20 20 18 17 14 11 10 11 12 12 14 15 12 13 12 13 16 16 13 12 12 12 12 14 15 15 15 15 15 15 14 15 16
35 43 44 40 36 33 30 27 25 24 21 21 20 18 16 13 11 12 13 14 14 15 14 11 11 13 16 16 12 11 12 11 12 13 15 15 15 15 14 14 13 15 16
41 40 48 46 40 37 33 30 28 27 25 23 21 19 18 14 12 13 13 16 16 15 15 11 12 13 14 14 11 10 10 11 12 13 15 15 15 15 13 13 13 14 15
38 45 38 38 41 38 37 34 31 29 27 25 23 20 18 15 14 15 13 15 16 16 16 15 13 14 14 12 10 9 9 10 12 13 14 15 16 16 13 12 13 14 15
39 36 43 42 39 44 44 41 37 34 30 27 25 22 18 16 16 15 12 12 15 17 15 16 15 15 13 10 9 9 10 10 11 11 14 15 16 17 15 12 13 14 15
40 43 40 47 48 45 56 50 42 34 32 30 27 23 20 18 17 16 14 14 14 17 16 16 16 16 12 10 9 9 9 10 10 11 12 14 16 17 15 13 14 14 15
42 42 43 49 51 47 46 51 46 40 38 36 33 27 24 21 18 16 15 14 15 18 17 17 16 16 12 10 10 9 9 10 10 10 11 14 16 18 16 13 13 15 16
40 44 47 45 50 51 43 55 54 50 46 41 34 30 27 23 20 18 15 14 17 19 18 17 17 17 12 11 11 10 9 10 10 10 11 14 17 18 17 15 14 14 15
39 41 47 52 49 50 54 45 47 54 46 40 37 35 30 28 24 22 17 18 19 19 18 17 18 18 14 12 13 11 10 10 11 10 11 15 18 19 18 16 14 13 14
42 41 42 50 54 49 47 54 46 60 52 48 45 41 34 32 28 24 20 20 19 18 18 18 19 19 15 15 13 11 11 10 11 11 11 14 17 18 17 15 13 13 14
43 44 44 47 52 55 48 48 48 42 57 52 47 44 39 34 30 27 24 24 20 18 21 20 20 20 16 16 14 12 12 11 11 12 12 13 16 17 17 16 14 12 14
Wind_Direction
146 130 116 109 104 104 96 81 76 74 76 81 80 80 78 77 73 70 69 71 74 76 72 55 45 38 29 22 17 14 12 10 7 359 350 341 336 333 329 327 329 328 325
155 144 136 120 113 107 105 92 88 89 86 82 83 82 81 80 76 74 71 69 73 64 52 45 36 25 17 12 12 10 8 8 5 1 356 351 343 336 333 334 329 321 313
166 161 154 140 127 116 113 101 99 103 103 97 91 89 85 82 77 69 64 61 61 55 43 35 26 14 7 5 5 5 5 1 360 355 351 342 337 335 340 334 328 325 324
169 169 165 158 163 149 146 134 116 111 115 109 101 95 88 81 77 68 53 49 48 41 28 22 11 5 1 1 2 1 359 357 351 346 341 337 337 339 338 337 334 328 328
176 169 169 163 186 186 176 168 152 117 120 121 113 106 99 88 78 68 53 41 37 31 19 10 3 359 357 356 356 354 350 347 344 338 337 343 345 341 337 334 334 335 334
192 176 170 159 177 186 178 165 159 117 124 134 138 132 114 94 82 72 63 48 36 21 16 4 358 354 353 351 349 344 344 340 337 335 343 342 339 336 333 334 335 333 333
205 189 183 162 171 183 174 165 154 143 143 150 152 144 120 104 90 76 66 53 38 19 11 0 353 347 348 343 341 339 337 332 330 335 336 333 332 331 332 333 332 338 343
206 196 189 176 177 193 178 166 164 159 156 157 152 147 126 112 98 85 66 53 29 7 358 352 347 345 336 336 334 331 328 329 332 334 333 333 330 334 338 339 344 353 360
210 212 202 197 199 208 190 171 174 169 166 158 157 150 136 124 111 78 56 33 351 340 339 341 344 335 334 332 328 329 330 328 330 334 333 328 335 341 348 354 359 4 6
231 223 210 210 217 222 204 183 179 174 172 167 164 160 153 146 133 65 3 351 326 319 326 336 336 327 328 329 331 328 328 327 333 334 332 335 344 349 359 5 8 7 4
246 234 219 216 220 225 214 196 186 183 178 176 173 173 172 172 131 347 341 335 319 306 312 319 318 322 323 329 327 326 327 329 337 338 337 343 352 357 7 8 9 4 8
240 246 237 225 217 217 217 204 194 192 187 183 182 190 195 192 237 310 337 348 334 296 299 307 310 319 320 323 324 322 323 331 344 343 344 349 355 1 4 10 7 10 7
234 247 244 219 208 212 211 206 201 199 193 190 191 205 209 220 249 303 337 347 340 298 294 300 310 318 317 318 320 323 329 339 346 345 348 354 358 0 4 3 11 10 8
229 234 239 231 218 213 210 207 204 205 200 197 199 213 219 236 256 300 329 340 340 303 299 303 304 309 306 314 321 327 333 342 343 345 349 355 355 2 360 3 10 9 10
230 229 234 234 217 212 211 211 204 203 203 205 207 216 227 236 261 297 315 333 335 310 292 297 301 306 306 312 322 327 337 338 341 341 350 353 354 1 357 359 5 7 10
230 226 229 236 216 209 207 208 204 203 207 209 213 219 229 238 263 290 304 317 326 326 298 300 305 302 307 314 320 330 330 330 336 341 345 351 352 354 354 354 359 2 8
224 221 218 214 222 208 209 206 204 204 208 207 210 219 231 239 263 281 296 306 315 321 313 309 307 307 311 312 322 327 329 328 332 338 341 348 347 346 350 350 351 357 2
228 228 217 211 209 211 209 203 205 205 210 210 213 219 228 241 262 272 288 299 303 312 314 306 307 313 314 313 315 325 326 326 328 334 341 344 343 341 344 345 343 347 353
233 232 234 229 208 212 206 208 208 207 209 210 214 215 224 244 252 262 279 294 294 301 310 304 306 312 312 308 305 315 320 323 324 332 341 339 342 338 337 338 339 340 345
229 231 231 229 230 212 213 212 211 207 207 208 210 218 224 232 244 256 271 286 291 291 300 300 304 303 303 295 295 309 313 318 320 332 338 337 341 338 334 334 335 339 338
233 226 231 231 230 218 220 216 214 207 208 210 217 216 223 226 238 251 263 275 291 286 288 293 293 294 290 284 288 296 305 310 320 332 337 335 340 336 332 328 332 338 338
235 233 228 233 223 226 221 212 210 209 209 212 211 211 217 223 230 246 259 273 281 287 276 281 285 287 280 276 279 283 296 303 318 325 338 339 339 334 331 327 329 338 341
231 235 231 232 238 225 227 214 214 212 212 209 209 214 218 219 229 240 253 273 283 287 270 274 281 277 271 262 267 277 285 302 312 318 339 341 337 333 332 327 330 337 342
230 233 235 232 234 235 229 227 222 212 213 211 212 217 218 216 228 238 252 271 280 286 263 269 276 274 263 253 258 268 279 294 301 315 338 341 336 333 333 326 328 333 340
236 232 231 236 234 235 235 233 236 216 209 209 213 216 216 220 224 236 247 263 276 279 257 261 272 265 254 247 258 265 275 288 298 312 333 338 334 333 330 324 325 332 338
240 240 235 233 237 238 233 235 239 226 213 210 214 217 216 220 224 233 241 254 272 274 253 255 268 262 245 244 250 256 271 284 295 309 327 333 331 334 331 323 324 329 336
Height
5873 5873 5876 5877 5880 5882 5883 5882 5882 5882 5881 5881 5881 5882 5883 5884 5884 5885 5885 5886 5886 5886 5886 5886 5885 5885 5885 5884 5883 5882 5881 5880 5878 5876 5875 5873 5871 5870 5868 5866 5864 5861 5859
5872 5873 5875 5877 5878 5880 5882 5882 5882 5883 5882 5882 5882 5883 5884 5885 5886 5886 5887 5887 5887 5887 5887 5886 5886 5887 5886 5885 5884 5882 5880 5879 5877 5875 5874 5872 5870 5868 5866 5865 5862 5859 5856
5872 5872 5874 5876 5877 5879 5881 5882 5882 5883 5883 5883 5884 5884 5885 5885 5886 5887 5888 5888 5888 5888 5888 5887 5887 5887 5886 5884 5883 5881 5879 5878 5876 5875 5873 5870 5868 5866 5864 5861 5858 5855 5852
5870 5872 5873 5875 5877 5878 5880 5881 5882 5883 5883 5884 5885 5885 5885 5885 5886 5887 5888 5889 5889 5889 5888 5888 5888 5887 5886 5884 5882 5881 5879 5877 5875 5873 5871 5868 5866 5864 5861 5858 5854 5851 5848
5869 5871 5872 5874 5876 5877 5879 5880 5881 5882 5882 5883 5884 5885 5885 5885 5886 5887 5888 5889 5889 5888 5888 5888 5888 5887 5886 5884 5882 5880 5878 5876 5875 5872 5869 5866 5864 5862 5859 5855 5851 5848 5845
5869 5870 5871 5872 5874 5876 5878 5879 5880 5881 5882 5883 5883 5884 5885 5885 5886 5887 5887 5889 5889 5889 5888 5888 5887 5886 5885 5883 5881 5879 5878 5875 5873 5870 5867 5865 5862 5859 5856 5853 5849 5846 5842
5867 5869 5870 5870 5873 5875 5876 5878 5879 5880 5881 5882 5883 5884 5885 5885 5886 5887 5887 5888 5889 5889 5889 5888 5887 5886 5884 5882 5880 5879 5877 5875 5872 5869 5867 5863 5861 5857 5853 5849 5846 5842 5838
5865 5866 5868 5870 5872 5874 5874 5876 5877 5879 5881 5882 5883 5884 5885 5885 5886 5887 5888 5888 5888 5889 5888 5887 5886 5885 5883 5881 5880 5878 5876 5873 5871 5867 5865 5862 5858 5854 5850 5847 5843 5840 5837
5862 5864 5866 5868 5870 5871 5873 5874 5876 5877 5880 5881 5882 5883 5885 5885 5886 5887 5888 5888 5887 5887 5887 5885 5884 5883 5882 5880 5879 5877 5875 5871 5869 5866 5863 5860 5856 5852 5848 5845 5842 5839 5836
5861 5862 5863 5865 5868 5869 5871 5872 5874 5876 5878 5879 5881 5882 5884 5885 5885 5886 5888 5887 5886 5885 5884 5884 5883 5882 5881 5879 5878 5876 5873 5870 5868 5865 5862 5858 5854 5850 5847 5843 5841 5838 5835
5858 5860 5861 5862 5865 5867 5869 5869 5871 5873 5875 5878 5879 5881 5883 5884 5884 5885 5886 5886 5884 5883 5882 5882 5881 5881 5880 5878 5877 5874 5871 5869 5866 5863 5860 5857 5853 5849 5846 5843 5840 5838 5835
5854 5856 5858 5860 5862 5864 5866 5867 5869 5871 5873 5876 5878 5879 5881 5882 5883 5883 5884 5884 5882 5881 5880 5880 5879 5879 5878 5877 5875 5872 5869 5867 5865 5862 5859 5856 5852 5849 5846 5842 5839 5837 5835
5848 5853 5856 5857 5859 5861 5863 5864 5866 5869 5870 5873 5875 5877 5879 5880 5881 5881 5882 5882 5881 5880 5879 5879 5878 5877 5876 5875 5873 5870 5867 5865 5863 5861 5858 5855 5852 5848 5845 5842 5839 5837 5834
5841 5846 5850 5853 5855 5858 5860 5861 5864 5866 5868 5870 5873 5875 5877 5879 5879 5879 5880 5880 5879 5878 5878 5877 5876 5876 5875 5873 5871 5868 5865 5864 5862 5860 5857 5854 5850 5848 5845 5842 5839 5836 5833
5833 5839 5843 5847 5850 5853 5855 5858 5860 5863 5865 5868 5870 5873 5875 5877 5878 5877 5877 5877 5877 5876 5876 5875 5875 5874 5873 5870 5867 5865 5864 5862 5860 5858 5855 5853 5850 5847 5844 5842 5839 5836 5833
5826 5830 5835 5841 5844 5847 5850 5853 5856 5859 5862 5865 5868 5870 5872 5874 5875 5874 5875 5874 5874 5874 5873 5872 5871 5871 5870 5868 5865 5864 5862 5860 5858 5856 5854 5852 5849 5847 5843 5841 5839 5836 5833
5817 5821 5826 5832 5838 5842 5845 5848 5851 5854 5858 5860 5864 5867 5869 5871 5872 5872 5872 5871 5871 5871 5870 5869 5868 5868 5867 5865 5863 5861 5860 5859 5857 5854 5852 5850 5848 5846 5843 5840 5838 5836 5832
5811 5814 5817 5821 5829 5835 5839 5842 5846 5849 5853 5856 5860 5862 5866 5867 5868 5869 5869 5869 5868 5868 5867 5866 5865 5865 5864 5863 5861 5859 5858 5857 5855 5853 5851 5850 5847 5845 5842 5840 5837 5834 5832
5802 5807 5811 5816 5821 5828 5832 5836 5840 5844 5848 5852 5855 5857 5861 5864 5865 5865 5865 5866 5865 5865 5864 5863 5863 5862 5860 5860 5859 5857 5855 5855 5854 5851 5850 5848 5846 5843 5841 5838 5836 5833 5830
5795 5800 5803 5808 5814 5820 5825 5829 5833 5837 5843 5847 5850 5853 5856 5859 5860 5861 5862 5863 5862 5862 5862 5861 5861 5859 5858 5857 5857 5855 5853 5852 5852 5850 5848 5846 5844 5842 5840 5837 5834 5832 5829
5787 5792 5796 5798 5806 5810 5814 5822 5828 5833 5837 5842 5845 5848 5851 5853 5856 5857 5858 5859 5859 5859 5859 5858 5859 5857 5856 5855 5855 5854 5852 5851 5850 5849 5847 5845 5842 5840 5838 5835 5833 5830 5827
5781 5785 5789 5790 5796 5799 5805 5812 5819 5824 5829 5832 5837 5841 5844 5848 5851 5852 5854 5855 5856 5856 5857 5856 5856 5854 5853 5852 5852 5852 5850 5850 5849 5848 5845 5843 5841 5839 5836 5833 5831 5828 5825
5771 5775 5780 5782 5786 5791 5791 5800 5807 5813 5818 5825 5832 5836 5838 5843 5845 5848 5849 5851 5852 5851 5851 5852 5852 5851 5850 5849 5850 5850 5849 5848 5847 5846 5844 5841 5839 5836 5833 5830 5828 5825 5823
5762 5765 5770 5773 5777 5782 5787 5792 5799 5806 5814 5821 5826 5829 5833 5836 5839 5842 5844 5845 5846 5846 5846 5848 5847 5848 5847 5846 5846 5847 5847 5845 5844 5843 5841 5839 5836 5834 5831 5828 5826 5824 5821
5752 5756 5760 5764 5769 5772 5780 5785 5789 5795 5804 5810 5816 5820 5826 5829 5833 5836 5839 5840 5841 5841 5842 5843 5844 5844 5843 5844 5844 5845 5845 5843 5842 5840 5838 5837 5835 5832 5829 5827 5825 5823 5820
5742 5747 5752 5755 5759 5765 5770 5776 5783 5789 5794 5802 5808 5814 5819 5822 5826 5830 5832 5834 5836 5836 5837 5839 5839 5839 5839 5840 5840 5841 5841 5840 5839 5837 5835 5834 5832 5830 5827 5825 5823 5821 5817